STARLINK-3270, 50199

Orbit data source: Space-Track

STARLINK-3270, 50199 is a payload satellite owned by SpaceX/Seattle (US) in LEO that was launched on Sat, 18 Dec 2021 UTC via an FALCON 9 launch vehicle from the Air Force Western Test Range (AFWTR). Payload-class satellites include a variety of spacecraft equipped with specific instruments for various scientific and technological missions. These include communications satellites like Starlink; space stations such as the ISS; scientific satellites like the Hubble; Earth observation satellites from companies like Planet Labs, Umbra, and HawkEye 360; GPS; miniature CubeSats for education and research; and military/defense satellites.

Loading next visibility...
Identifier
50199, 2021-125AV
Orbit
LEO
Country
Flag of USUS
Related business
Manufacturer
SpaceX/Seattle
Mission
Operational Commercial Communications
Bus & Motor
STARLINK, Unknown motor
Mass
290 kg wet, ~270 kg dry
Launch date (UTC)
2021-12-18 (5 years ago)
Launch vehicle
FALCON 9
Launch site
Air Force Western Test Range (AFWTR)
Object type
Payload
Rocket body
Debris
Shape & HBR
Box + 1 Pan, 10.1 m
Radar Cross Section
13.562 m², Large (>1 m²)

Expand to show TLE details & history
Last TLE update: 7 hours ago

TLE from 7 hours ago
0 STARLINK-3270
1 50199U 21125AV  26170.20551453  .00000067  00000-0  22280-4 0  9997
2 50199  53.1616 143.2953 0001280  74.7732 285.3401 15.08831761252053
Epoch: 2026-06-19T04:55Z
TLE epoch observation values (Epoch: 2026-06-19T04:55:56.455Z)
Latitude
-0.00001°
Longitude
161.87223°
Altitude
540.426 km
Speed
7.593 km/s
True Right ascension
09h 33m 10s
True Declination
0° 00' 00"
Sunlit
Object was in daylight at epoch
Visualization orbit readout
Latitude
Unknown
Longitude
Unknown
Altitude
Unknown
Speed
Unknown
Apparent Right ascension
Unknown
Apparent Declination
Unknown
Sunlit
N/A
Visualization observer readout
Local Sidereal Time
22:21:48
Azimuth
Unknown
Elevation
Unknown
Doppler factor
Unknown
Orbital elements
Apogee altitude
540.908 km
Perigee altitude
539.137 km
Semi-major axis
6,918.159 km
Eccentricity
0.00013
Inclination
53.1616°
RAAN
143.2953°
Arg. of periapsis
74.7732°
True anomaly
285.32595°
Mean anomaly
285.3401°
Eccentric anomaly
285.33303°
Mean motion
3.77188 °/min
Orbital period
95.44 mins
BSTAR
0.00002228
Loading maneuver chart data...
Computing Atmospheric mass density...

Documentation

Showing up to 5 results
|